Погода в Старой Бряни

Россия / Республика Бурятия     51°35′03″N   108°08′01″E
темп.,
°C
ветер,
м/с
пор.,
м/с
влажн.,
%
обл.,
%
осадки,
мм/ч
давл.,
гПа
погр.,
м
27 сентября, пн
пн2723:000ююз2279100 0.0 101634
02:00−2ююз228236 0.0 101530
05:00−2ююз218470 0.0 101314
08:00+1ююз11745 0.0 101277
11:00+6сз235576 0.0 10101245
14:00+7ссз344178 0.1 10091694
17:00+6ссз3447100 0.0 10091268
20:000сз2667100 0.0 1013107
28 сентября, вт
вт2823:00−1зсз11718 0.0 101410
02:00−2зсз11838 0.0 101410
05:00−3з228822 0.0 101635
08:00−1сз510766 0.0 1017866
11:00+2сз6955100 0.0 10171376
14:00+2зсз6963100 0.3 10181485
17:00+2зсз51060100 0.2 10181596
20:00−2зсз29795 0.3 1020277
29 сентября, ср
ср2923:00−3зюз298535 0.0 1020266
02:00−2з4117549 0.0 1020677
05:00−4зюз22917 0.0 102046
08:00−1з397879 0.0 1019845
11:00+1зсз5962100 0.1 10181478
14:00+2сз6954100 0.3 10161752
17:00+1сз586146 0.1 10171257
20:00−3зсз399035 0.1 1019358
30 сентября, чт
чт3023:00−4зюз229442 0.0 102045
02:00−5юз22946 0.0 101920
05:00−5юз22945 0.0 101920
08:00−3юз12815 0.0 1018109
11:00+3з34516 0.0 10151061
14:00+5зсз454418 0.0 10131352
17:00+4сз34505 0.0 10131216
20:00−2з11821 0.0 101511
1 октября, пт
пт123:00−3зюз21810 0.0 101511
02:00−3зюз11822 0.0 101511
05:00−4зюз11845 0.0 101510
08:00−1юз12725 0.0 101457
11:00+5зсз24475 0.0 10111112
14:00+7сз444094 0.0 10091400
17:00+5сз245159 0.0 1009868
20:000зюз117597 0.0 101110